Regional Weather Roundup
Issued by NWS Albany, NY

Home | Current Version | Previous Version | Text Only | Print | Product List | Glossary On
Versions: 1 2 3 4 5 6 7 8 9 10 11 12 13 14 15 16 17 18 19 20 21 22 23 24 25 26 27 28 29 30 31 32 33 34 35 36 37 38 39 40 41 42 43 44 45 46 47 48 49 50
000
ASUS41 KALY 210310
RWRALY

NEW YORK STATE HOURLY WEATHER ROUNDUP
NATIONAL WEATHER SERVICE ALBANY NY
1000 PM EST THU NOV 20 2014

NOTE: "FAIR" INDICATES FEW OR NO CLOUDS BELOW 12,000 FEET WITH NO
SIGNIFICANT WEATHER AND/OR NO OBSTRUCTIONS TO VISIBILITY.

NYZ032-033-038>043-046>054-057>066-NYZ062>081-210400-
EAST


CITY           SKY/WX    TMP DP  RH WIND       PRES   REMARKS
ALBANY         MOCLDY    24  16  71 CALM      29.95R
GLENS FALLS    CLEAR     27  14  58 SW7       29.90R WCI  19
POUGHKEEPSIE   CLEAR     32  10  40 W12       29.95S WCI  23
NEWBURGH       CLEAR     28  14  54 W14       29.96R WCI  17
MONTGOMERY     CLEAR     30   9  41 W12G21    29.95R WCI  20
WHITE PLAINS   CLEAR     32   9  38 W18       29.95R WCI  20
ISLIP          PTCLDY    36  10  34 NW15G23   29.95R WCI  27
NEW YORK CITY  PTCLDY    35  12  38 W14       29.99R WCI  26
CENTRAL PARK   CLEAR     34   9  35 W8G20     30.01R WCI  27
$$

NYZ005>009-017-018-044>046-055-056-210400-
CENTRAL


CITY           SKY/WX    TMP DP  RH WIND       PRES   REMARKS
FULTON         LGT SNOW  25  16  68 SW16      29.93R WCI  12
SYRACUSE       CLOUDY    26  16  65 SW18G24   29.94S WCI  13
ROME           CLOUDY    24  16  71 W6        29.94R WCI  17
ELMIRA         CLOUDY    26  10  50 W12       29.96S WCI  16
BINGHAMTON     CLOUDY    22   7  52 W10       29.90R WCI  11
MONTICELLO     FAIR      23   9  54 W7        29.92R WCI  15
$$

NYZ026>034-041>043-210400-
NORTH


CITY           SKY/WX    TMP DP  RH WIND       PRES   REMARKS
WATERTOWN      PTCLDY    27  11  51 W16       29.89R WCI  15
FORT DRUM      NOT AVBL
MASSENA        CLEAR     24  10  55 SW10      29.83R WCI  14
SARANAC LAKE   CLEAR     18  11  74 SW10      29.74S WCI   6
PLATTSBURGH    NOT AVBL
$$

NYZ001>004-010>016-019>021-210400-
WEST


CITY           SKY/WX    TMP DP  RH WIND       PRES   REMARKS
NIAGARA FALLS  MOCLDY    19  11  70 W14       29.96R WCI   6
BUFFALO        CLOUDY    20  12  71 W14       29.97R WCI   7
DUNKIRK        LGT SNOW  25  11  55 W17G31    30.00R WCI  12
JAMESTOWN      CLOUDY    18  16  93 W15       29.93F VSB 3/4 WCI   3
WELLSVILLE     LGT SNOW  18  13  80 SW13G22   29.90R WCI   5
ROCHESTER      CLOUDY    24  14  65 SW13      29.96R WCI  12
PENN YAN       LGT SNOW  23  17  78 W10       29.96S WCI  12
$$

             KEY
       WCI = WIND CHILL INDEX
       VSB = VISIBILITY
       HX  = HEAT INDEX
$$


USA.gov is the U.S. government's official web portal to all federal, state and local government web resources and services.